| time (UTC) | temp C | wind direction | speed KPH | gust KPH | rain 1hr cm | rain 24hr cm | rain mn cm | humidity % | barometer mb |
| 20260507104957 | 8 | 241 | 0.0 | 1.6 | 0.00 | 0.08 | 0.08 | 88 | 1007.3 |
| 20260507104454 | 9 | 235 | 0.0 | 0.0 | 0.00 | 0.08 | 0.08 | 88 | 1007.1 |
| 20260507103950 | 8 | 229 | 1.6 | 3.2 | 0.00 | 0.08 | 0.08 | 88 | 1006.8 |
| 20260507103447 | 8 | 243 | 0.0 | 0.0 | 0.00 | 0.08 | 0.08 | 89 | 1006.6 |
| 20260507102943 | 8 | 237 | 0.0 | 0.0 | 0.18 | 0.08 | 0.08 | 89 | 1006.7 |
| 20260507102440 | 8 | 266 | 4.8 | 4.8 | 0.18 | 0.08 | 0.08 | 89 | 1006.8 |
| 20260507101936 | 8 | 251 | 1.6 | 1.6 | 0.00 | 0.05 | 0.05 | 89 | 1007.1 |
| 20260507101431 | 8 | 254 | 1.6 | 1.6 | 0.00 | 0.05 | 0.05 | 90 | 1006.9 |
| 20260507100928 | 8 | 246 | 3.2 | 3.2 | 0.00 | 0.05 | 0.05 | 90 | 1006.6 |
| 20260507100426 | 8 | 227 | 0.0 | 1.6 | 0.00 | 0.05 | 0.05 | 91 | 1006.3 |
| 20260507095924 | 8 | 249 | 1.6 | 3.2 | 0.00 | 0.05 | 0.05 | 91 | 1006.7 |
| 20260507095421 | 8 | 264 | 1.6 | 1.6 | 0.00 | 0.05 | 0.05 | 90 | 1006.6 |
| 20260507094918 | 8 | 241 | 0.0 | 1.6 | 0.00 | 0.05 | 0.05 | 90 | 1006.7 |
| 20260507094414 | 9 | 310 | 1.6 | 3.2 | 0.13 | 0.05 | 0.05 | 89 | 1006.9 |
| 20260507093911 | 9 | 278 | 1.6 | 1.6 | 0.13 | 0.05 | 0.05 | 89 | 1006.7 |
| 20260507093409 | 9 | 244 | 1.6 | 1.6 | 0.00 | 0.03 | 0.03 | 89 | 1006.6 |
| 20260507092907 | 9 | 263 | 1.6 | 1.6 | 0.00 | 0.03 | 0.03 | 90 | 1006.4 |
| 20260507092403 | 9 | 244 | 0.0 | 1.6 | 0.00 | 0.03 | 0.03 | 91 | 1006.8 |
| 20260507091900 | 9 | 251 | 1.6 | 1.6 | 0.00 | 0.03 | 0.03 | 91 | 1006.9 |
| 20260507091356 | 10 | 255 | 0.0 | 1.6 | 0.00 | 0.03 | 0.03 | 91 | 1006.9 |
| 20260507090852 | 10 | 247 | 1.6 | 1.6 | 0.00 | 0.03 | 0.03 | 91 | 1006.8 |
| 20260507090348 | 10 | 263 | 1.6 | 1.6 | 0.00 | 0.03 | 0.03 | 91 | 1006.6 |
| 20260507085845 | 9 | 266 | 1.6 | 1.6 | 0.00 | 0.03 | 0.03 | 91 | 1006.7 |
| 20260507085342 | 10 | 249 | 3.2 | 3.2 | 0.00 | 0.03 | 0.03 | 91 | 1006.8 |
| 20260507084840 | 9 | 244 | 1.6 | 1.6 | 0.00 | 0.03 | 0.03 | 92 | 1006.3 |
| 20260507084336 | 10 | 252 | 1.6 | 1.6 | 0.00 | 0.03 | 0.03 | 92 | 1006.3 |
| 20260507083833 | 10 | 250 | 1.6 | 1.6 | 0.00 | 0.03 | 0.03 | 92 | 1006.4 |
| 20260507083330 | 10 | 242 | 0.0 | 0.0 | 0.00 | 0.03 | 0.03 | 92 | 1006.2 |
| 20260507082826 | 10 | 243 | 0.0 | 0.0 | 0.00 | 0.03 | 0.03 | 92 | 1006.0 |
| 20260507082321 | 10 | 262 | 3.2 | 3.2 | 0.00 | 0.03 | 0.03 | 92 | 1006.1 |
| 20260507081819 | 10 | 249 | 3.2 | 3.2 | 0.00 | 0.03 | 0.03 | 92 | 1006.2 |
| 20260507081315 | 10 | 268 | 0.0 | 1.6 | 0.00 | 0.03 | 0.03 | 92 | 1006.4 |
| 20260507080811 | 10 | 245 | 1.6 | 3.2 | 0.18 | 0.03 | 0.03 | 91 | 1006.6 |
| 20260507080308 | 10 | 275 | 4.8 | 4.8 | 0.18 | 0.03 | 0.03 | 90 | 1006.5 |
| 20260507075803 | 10 | 245 | 0.0 | 1.6 | 0.18 | 0.03 | 0.03 | 88 | 1006.4 |
| 20260507075259 | 10 | 313 | 4.8 | 4.8 | 0.00 | 0.00 | 0.00 | 87 | 1006.2 |
| 20260507074756 | 11 | 259 | 1.6 | 3.2 | 0.00 | 0.00 | 0.00 | 87 | 1006.3 |
| 20260507074254 | 10 | 237 | 1.6 | 1.6 | 0.00 | 0.00 | 0.00 | 87 | 1006.1 |
| 20260507073751 | 11 | 252 | 1.6 | 1.6 | 0.00 | 0.00 | 0.00 | 87 | 1005.8 |
| 20260507073247 | 11 | 248 | 1.6 | 3.2 | 0.00 | 0.00 | 0.00 | 87 | 1005.8 |
| 20260507072745 | 11 | 249 | 3.2 | 3.2 | 0.00 | 0.00 | 0.00 | 87 | 1005.9 |
| 20260507072242 | 11 | 281 | 4.8 | 4.8 | 0.00 | 0.00 | 0.00 | 87 | 1006.0 |
| 20260507071740 | 11 | 247 | 1.6 | 1.6 | 0.00 | 0.00 | 0.00 | 87 | 1005.8 |
| 20260507071236 | 11 | 272 | 4.8 | 4.8 | 0.00 | 0.00 | 0.00 | 86 | 1005.7 |
| 20260507070733 | 11 | 269 | 3.2 | 3.2 | 0.00 | 0.00 | 0.00 | 86 | 1005.6 |
| 20260507070230 | 11 | 249 | 0.0 | 0.0 | 0.00 | 0.00 | 0.00 | 86 | 1005.5 |
| 20260507065726 | 11 | 281 | 3.2 | 4.8 | 0.00 | 0.00 | 0.00 | 86 | 1005.8 |
| 20260507065223 | 11 | 257 | 4.8 | 4.8 | 0.00 | 0.00 | 0.00 | 86 | 1005.7 |
| 20260507064721 | 11 | 260 | 1.6 | 1.6 | 0.00 | 0.00 | 0.00 | 87 | 1005.6 |
| 20260507064220 | 11 | 246 | 1.6 | 1.6 | 0.00 | 0.00 | 0.00 | 88 | 1005.7 |
| 20260507063716 | 11 | 249 | 1.6 | 1.6 | 0.00 | 0.00 | 0.00 | 87 | 1005.7 |
| 20260507063213 | 11 | 250 | 1.6 | 1.6 | 0.00 | 0.00 | 0.00 | 88 | 1005.4 |
| 20260507062710 | 11 | 246 | 1.6 | 3.2 | 0.00 | 0.00 | 0.00 | 89 | 1005.3 |
| 20260507062208 | 11 | 290 | 8.0 | 11.3 | 0.00 | 0.00 | 0.00 | 90 | 1005.6 |
| 20260507061705 | 11 | 254 | 1.6 | 1.6 | 0.00 | 0.00 | 0.00 | 91 | 1005.5 |
| 20260507061203 | 11 | 297 | 3.2 | 4.8 | 0.00 | 0.00 | 0.00 | 92 | 1005.6 |
| 20260507060701 | 11 | 309 | 1.6 | 1.6 | 0.00 | 0.00 | 0.00 | 92 | 1005.6 |
| 20260507060157 | 11 | 244 | 1.6 | 1.6 | 0.00 | 0.00 | 0.00 | 92 | 1005.5 |
| 20260507055653 | 12 | 261 | 1.6 | 3.2 | 0.00 | 0.00 | 0.00 | 93 | 1005.7 |
| 20260507055149 | 12 | 245 | 1.6 | 1.6 | 0.00 | 0.00 | 0.00 | 92 | 1005.6 |
| 20260507054645 | 12 | 270 | 6.4 | 8.0 | 0.00 | 0.00 | 0.00 | 92 | 1005.8 |
| 20260507054142 | 12 | 254 | 3.2 | 3.2 | 0.00 | 0.00 | 0.00 | 92 | 1005.8 |
| 20260507053640 | 12 | 255 | 4.8 | 4.8 | 0.00 | 0.00 | 0.00 | 92 | 1005.7 |
| 20260507053138 | 12 | 255 | 3.2 | 4.8 | 0.00 | 0.00 | 0.00 | 94 | 1005.7 |
| 20260507052636 | 12 | 244 | 1.6 | 1.6 | 0.00 | 0.00 | 0.00 | 95 | 1005.7 |
| 20260507052132 | 12 | 240 | 0.0 | 1.6 | 0.00 | 0.00 | 0.00 | 96 | 1005.6 |
| 20260507051630 | 12 | 259 | 6.4 | 8.0 | 0.00 | 0.00 | 0.00 | 96 | 1005.6 |
| 20260507051126 | 13 | 264 | 3.2 | 4.8 | 0.00 | 0.00 | 0.00 | 97 | 1005.6 |
| 20260507050623 | 13 | 275 | 0.0 | 0.0 | 0.00 | 0.00 | 0.00 | 98 | 1006.0 |
| 20260507050120 | 13 | 266 | 3.2 | 3.2 | 0.00 | 0.00 | 0.00 | 98 | 1005.8 |
| 20260507045617 | 13 | 252 | 1.6 | 1.6 | 0.00 | 0.00 | 0.00 | 98 | 1005.6 |
| 20260507045114 | 13 | 275 | 1.6 | 3.2 | 0.00 | 0.00 | 0.00 | 98 | 1005.4 |
| 20260507044610 | 13 | 283 | 3.2 | 3.2 | 0.00 | 0.00 | 0.00 | 99 | 1005.5 |
| 20260507044108 | 14 | 299 | 4.8 | 4.8 | 0.00 | 0.00 | 0.00 | 99 | 1005.5 |
| 20260507043603 | 14 | 243 | 0.0 | 1.6 | 0.00 | 0.00 | 0.00 | 99 | 1005.4 |
| 20260507043101 | 14 | 242 | 0.0 | 0.0 | 0.00 | 0.00 | 0.00 | 99 | 1005.8 |
| 20260507042556 | 14 | 345 | 4.8 | 8.0 | 0.00 | 0.00 | 0.00 | 99 | 1005.4 |
| 20260507042052 | 15 | 236 | 0.0 | 0.0 | 0.00 | 0.00 | 0.00 | 99 | 1005.5 |
| 20260507041549 | 15 | 248 | 0.0 | 0.0 | 0.00 | 0.00 | 0.00 | 99 | 1005.4 |
| 20260507041046 | 15 | 247 | 0.0 | 0.0 | 0.00 | 0.00 | 0.00 | 99 | 1005.8 |
| 20260507040542 | 15 | 241 | 0.0 | 0.0 | 0.00 | 0.00 | 0.00 | 99 | 1005.6 |
| 20260507040038 | 15 | 213 | 0.0 | 0.0 | 0.13 | 0.33 | 0.33 | 99 | 1005.4 |
| 20260507035535 | 15 | 222 | 0.0 | 0.0 | 0.13 | 0.33 | 0.33 | 99 | 1005.2 |
| 20260507035031 | 15 | 243 | 1.6 | 1.6 | 0.00 | 0.30 | 0.30 | 99 | 1005.3 |
| 20260507034528 | 15 | 218 | 3.2 | 3.2 | 0.00 | 0.30 | 0.30 | 99 | 1005.3 |
| 20260507034026 | 15 | 224 | 1.6 | 1.6 | 0.00 | 0.30 | 0.30 | 99 | 1005.5 |
| 20260507033524 | 15 | 196 | 4.8 | 4.8 | 0.00 | 0.30 | 0.30 | 99 | 1005.4 |
| 20260507033021 | 15 | 209 | 1.6 | 1.6 | 0.00 | 0.30 | 0.30 | 99 | 1005.1 |
| 20260507032518 | 15 | 202 | 1.6 | 3.2 | 0.00 | 0.30 | 0.30 | 99 | 1005.0 |
| 20260507032014 | 15 | 221 | 1.6 | 1.6 | 0.00 | 0.30 | 0.30 | 99 | 1005.0 |
| 20260507031510 | 15 | 235 | 1.6 | 1.6 | 0.00 | 0.30 | 0.30 | 99 | 1004.7 |
| 20260507031008 | 15 | 192 | 3.2 | 3.2 | 0.00 | 0.30 | 0.30 | 99 | 1004.8 |
| 20260507030504 | 15 | 212 | 1.6 | 3.2 | 0.00 | 0.30 | 0.30 | 99 | 1004.7 |
| 20260507030002 | 15 | 203 | 1.6 | 1.6 | 0.00 | 0.30 | 0.30 | 99 | 1004.8 |
| 20260507025458 | 15 | 237 | 1.6 | 1.6 | 0.00 | 0.30 | 0.30 | 99 | 1004.8 |
| 20260507024956 | 15 | 213 | 3.2 | 3.2 | 0.00 | 0.30 | 0.30 | 99 | 1004.8 |
| 20260507024453 | 14 | 211 | 3.2 | 3.2 | 0.00 | 0.30 | 0.30 | 99 | 1004.9 |
| 20260507023949 | 14 | 234 | 1.6 | 1.6 | 0.00 | 0.30 | 0.30 | 99 | 1004.9 |
| 20260507023446 | 14 | 195 | 4.8 | 8.0 | 0.00 | 0.30 | 0.30 | 99 | 1004.9 |
| 20260507022943 | 14 | 222 | 4.8 | 4.8 | 0.00 | 0.30 | 0.30 | 99 | 1005.0 |
| 20260507022441 | 14 | 235 | 3.2 | 3.2 | 0.00 | 0.30 | 0.30 | 99 | 1005.0 |
| 20260507021936 | 14 | 185 | 3.2 | 3.2 | 0.00 | 0.30 | 0.30 | 99 | 1004.7 |
| 20260507021431 | 14 | 227 | 1.6 | 3.2 | 0.00 | 0.30 | 0.30 | 99 | 1004.8 |
| 20260507020930 | 14 | 192 | 6.4 | 8.0 | 0.00 | 0.30 | 0.30 | 99 | 1005.0 |
| 20260507020426 | 14 | 182 | 4.8 | 4.8 | 0.00 | 0.30 | 0.30 | 99 | 1005.0 |
| 20260507015923 | 14 | 229 | 3.2 | 3.2 | 0.00 | 0.30 | 0.30 | 99 | 1005.0 |
| 20260507015421 | 14 | 205 | 3.2 | 3.2 | 0.00 | 0.30 | 0.30 | 99 | 1005.1 |
| 20260507014918 | 14 | 215 | 1.6 | 3.2 | 0.00 | 0.30 | 0.30 | 99 | 1005.0 |
| 20260507014414 | 14 | 185 | 1.6 | 3.2 | 0.00 | 0.30 | 0.30 | 99 | 1005.2 |
| 20260507013910 | 14 | 205 | 3.2 | 3.2 | 0.00 | 0.30 | 0.30 | 99 | 1005.1 |
| 20260507013408 | 14 | 189 | 1.6 | 3.2 | 0.00 | 0.30 | 0.30 | 99 | 1005.2 |
| 20260507012905 | 14 | 211 | 4.8 | 4.8 | 0.00 | 0.30 | 0.30 | 99 | 1005.2 |
| 20260507012401 | 14 | 188 | 1.6 | 3.2 | 0.00 | 0.30 | 0.30 | 99 | 1005.5 |
| 20260507011859 | 14 | 189 | 4.8 | 4.8 | 0.00 | 0.30 | 0.30 | 99 | 1005.3 |
| 20260507011355 | 14 | 202 | 1.6 | 3.2 | 0.00 | 0.30 | 0.30 | 99 | 1005.1 |
| 20260507010855 | 13 | 202 | 0.0 | 0.0 | 0.00 | 0.30 | 0.30 | 99 | 1005.4 |
| 20260507010351 | 13 | 171 | 3.2 | 3.2 | 0.00 | 0.30 | 0.30 | 99 | 1005.3 |
| 20260507005848 | 13 | 212 | 1.6 | 3.2 | 0.00 | 0.30 | 0.30 | 99 | 1005.4 |
| 20260507005345 | 13 | 201 | 1.6 | 1.6 | 0.00 | 0.30 | 0.30 | 99 | 1005.2 |
| 20260507004842 | 13 | 209 | 3.2 | 3.2 | 0.00 | 0.30 | 0.30 | 99 | 1005.3 |
| 20260507004339 | 13 | 197 | 3.2 | 3.2 | 0.00 | 0.30 | 0.30 | 99 | 1005.6 |
| 20260507003836 | 13 | 233 | 0.0 | 1.6 | 0.00 | 0.30 | 0.30 | 99 | 1005.4 |
| 20260507003331 | 13 | 194 | 4.8 | 4.8 | 0.00 | 0.30 | 0.30 | 99 | 1005.3 |
| 20260507002826 | 13 | 215 | 3.2 | 4.8 | 0.00 | 0.30 | 0.30 | 99 | 1005.4 |
| 20260507002323 | 13 | 219 | 4.8 | 4.8 | 0.00 | 0.30 | 0.30 | 99 | 1005.3 |
| 20260507001820 | 13 | 196 | 3.2 | 3.2 | 0.00 | 0.30 | 0.30 | 99 | 1005.2 |
| 20260507001317 | 13 | 198 | 3.2 | 3.2 | 0.00 | 0.30 | 0.30 | 99 | 1004.9 |
| 20260507000813 | 13 | 201 | 3.2 | 3.2 | 0.00 | 0.30 | 0.30 | 99 | 1004.9 |
| 20260507000309 | 13 | 201 | 1.6 | 3.2 | 0.00 | 0.30 | 0.30 | 99 | 1005.1 |
| 20260506235806 | 13 | 208 | 1.6 | 3.2 | 0.00 | 0.30 | 0.30 | 99 | 1005.2 |
| 20260506235306 | 13 | 198 | 1.6 | 1.6 | 0.18 | 0.30 | 0.30 | 99 | 1005.2 |
| 20260506234759 | 13 | 228 | 3.2 | 3.2 | 0.30 | 0.30 | 0.30 | 99 | 1005.1 |
| 20260506234256 | 14 | 187 | 4.8 | 4.8 | 0.48 | 0.28 | 0.28 | 99 | 1005.1 |
| 20260506233754 | 14 | 195 | 3.2 | 3.2 | 0.36 | 0.25 | 0.25 | 99 | 1005.0 |
| 20260506233250 | 14 | 208 | 1.6 | 1.6 | 0.18 | 0.23 | 0.23 | 98 | 1005.1 |
| 20260506232747 | 14 | 187 | 3.2 | 3.2 | 0.00 | 0.20 | 0.20 | 98 | 1005.1 |
| 20260506232241 | 14 | 229 | 1.6 | 1.6 | 0.00 | 0.20 | 0.20 | 98 | 1005.1 |
| 20260506231739 | 14 | 206 | 1.6 | 3.2 | 0.00 | 0.20 | 0.20 | 98 | 1005.3 |
| 20260506231238 | 14 | 199 | 4.8 | 8.0 | 0.00 | 0.20 | 0.20 | 98 | 1005.2 |
| 20260506230734 | 15 | 188 | 6.4 | 9.7 | 0.00 | 0.20 | 0.20 | 98 | 1005.4 |
| 20260506230231 | 15 | 203 | 4.8 | 4.8 | 0.00 | 0.20 | 0.20 | 98 | 1005.3 |
| 20260506225727 | 15 | 191 | 3.2 | 3.2 | 0.00 | 0.20 | 0.20 | 98 | 1005.4 |
| 20260506225225 | 15 | 210 | 4.8 | 4.8 | 0.00 | 0.20 | 0.20 | 98 | 1005.4 |
| 20260506224721 | 15 | 183 | 3.2 | 3.2 | 0.00 | 0.20 | 0.20 | 98 | 1005.2 |
| 20260506224218 | 15 | 207 | 1.6 | 1.6 | 0.00 | 0.20 | 0.20 | 98 | 1005.3 |
| 20260506223714 | 15 | 167 | 4.8 | 4.8 | 0.00 | 0.20 | 0.20 | 98 | 1005.2 |
| 20260506223210 | 15 | 224 | 0.0 | 1.6 | 0.00 | 0.20 | 0.20 | 98 | 1005.4 |
| 20260506222707 | 15 | 206 | 1.6 | 1.6 | 0.00 | 0.20 | 0.20 | 98 | 1005.3 |
| 20260506222202 | 15 | 189 | 1.6 | 3.2 | 0.00 | 0.20 | 0.20 | 97 | 1005.2 |
| 20260506221701 | 15 | 205 | 3.2 | 3.2 | 0.00 | 0.20 | 0.20 | 97 | 1005.4 |
| 20260506221159 | 15 | 146 | 1.6 | 3.2 | 0.00 | 0.20 | 0.20 | 97 | 1005.7 |
| 20260506220655 | 15 | 209 | 3.2 | 3.2 | 0.00 | 0.20 | 0.20 | 97 | 1005.7 |
| 20260506220150 | 15 | 180 | 4.8 | 4.8 | 0.00 | 0.20 | 0.20 | 97 | 1005.9 |
| 20260506215647 | 15 | 177 | 4.8 | 8.0 | 0.00 | 0.20 | 0.20 | 97 | 1006.0 |
| 20260506215142 | 15 | 176 | 1.6 | 3.2 | 0.13 | 0.20 | 0.20 | 97 | 1005.8 |
| 20260506214639 | 15 | 206 | 1.6 | 1.6 | 0.13 | 0.20 | 0.20 | 97 | 1005.9 |
| 20260506214137 | 15 | 181 | 1.6 | 1.6 | 0.13 | 0.20 | 0.20 | 97 | 1005.8 |
| 20260506213635 | 15 | 176 | 3.2 | 3.2 | 0.00 | 0.18 | 0.18 | 97 | 1006.1 |
| 20260506213132 | 15 | 213 | 1.6 | 1.6 | 0.00 | 0.18 | 0.18 | 97 | 1006.0 |
| 20260506212629 | 15 | 188 | 3.2 | 3.2 | 0.00 | 0.18 | 0.18 | 97 | 1006.0 |
| 20260506212124 | 15 | 195 | 3.2 | 3.2 | 0.00 | 0.18 | 0.18 | 97 | 1006.1 |
| 20260506211620 | 15 | 206 | 1.6 | 3.2 | 0.00 | 0.18 | 0.18 | 97 | 1006.0 |
| 20260506211117 | 15 | 191 | 1.6 | 1.6 | 0.18 | 0.18 | 0.18 | 96 | 1006.3 |
| 20260506210614 | 15 | 207 | 3.2 | 4.8 | 0.18 | 0.18 | 0.18 | 96 | 1006.3 |
| 20260506210110 | 15 | 209 | 1.6 | 1.6 | 0.13 | 0.15 | 0.15 | 96 | 1006.3 |
| 20260506205607 | 15 | 196 | 3.2 | 3.2 | 0.13 | 0.15 | 0.15 | 95 | 1006.3 |
| 20260506205102 | 15 | 220 | 3.2 | 3.2 | 0.00 | 0.13 | 0.13 | 94 | 1006.4 |
| 20260506204600 | 15 | 226 | 1.6 | 1.6 | 0.30 | 0.13 | 0.13 | 94 | 1006.3 |
| 20260506204057 | 15 | 193 | 3.2 | 3.2 | 0.48 | 0.13 | 0.13 | 92 | 1006.4 |
| 20260506203555 | 16 | 218 | 3.2 | 3.2 | 0.18 | 0.08 | 0.08 | 91 | 1006.4 |
| 20260506203051 | 16 | 229 | 1.6 | 3.2 | 0.13 | 0.05 | 0.05 | 89 | 1006.3 |
| 20260506202549 | 16 | 230 | 4.8 | 4.8 | 0.13 | 0.05 | 0.05 | 88 | 1006.4 |
| 20260506202045 | 16 | 217 | 4.8 | 4.8 | 0.00 | 0.03 | 0.03 | 88 | 1006.1 |
| 20260506201543 | 16 | 200 | 4.8 | 4.8 | 0.00 | 0.03 | 0.03 | 87 | 1006.0 |
| 20260506201039 | 16 | 240 | 1.6 | 1.6 | 0.00 | 0.03 | 0.03 | 87 | 1005.8 |
| 20260506200536 | 16 | 199 | 3.2 | 3.2 | 0.00 | 0.03 | 0.03 | 87 | 1006.0 |
| 20260506200033 | 16 | 211 | 1.6 | 1.6 | 0.00 | 0.03 | 0.03 | 86 | 1006.1 |
| 20260506195529 | 16 | 189 | 3.2 | 4.8 | 0.18 | 0.03 | 0.03 | 85 | 1006.3 |
| 20260506195026 | 17 | 210 | 3.2 | 3.2 | 0.18 | 0.03 | 0.03 | 84 | 1006.1 |
| 20260506194524 | 17 | 189 | 1.6 | 3.2 | 0.00 | 0.00 | 0.00 | 84 | 1006.5 |
| 20260506194020 | 17 | 197 | 1.6 | 3.2 | 0.00 | 0.00 | 0.00 | 84 | 1006.7 |
| 20260506193517 | 17 | 227 | 0.0 | 1.6 | 0.00 | 0.00 | 0.00 | 83 | 1006.3 |
| 20260506193014 | 17 | 207 | 1.6 | 1.6 | 0.00 | 0.00 | 0.00 | 82 | 1006.3 |
| 20260506192511 | 17 | 191 | 3.2 | 4.8 | 0.00 | 0.00 | 0.00 | 80 | 1006.4 |
| 20260506192007 | 18 | 203 | 3.2 | 4.8 | 0.00 | 0.00 | 0.00 | 79 | 1006.3 |
| 20260506191504 | 18 | 204 | 3.2 | 4.8 | 0.00 | 0.00 | 0.00 | 77 | 1006.2 |
| 20260506191000 | 18 | 225 | 3.2 | 3.2 | 0.00 | 0.00 | 0.00 | 75 | 1006.5 |
| 20260506190457 | 18 | 217 | 4.8 | 4.8 | 0.00 | 0.00 | 0.00 | 75 | 1006.3 |
| 20260506185954 | 18 | 236 | 1.6 | 3.2 | 0.00 | 0.00 | 0.00 | 75 | 1006.2 |
| 20260506185451 | 18 | 215 | 3.2 | 3.2 | 0.00 | 0.00 | 0.00 | 74 | 1006.2 |
| 20260506184948 | 18 | 192 | 4.8 | 4.8 | 0.00 | 0.00 | 0.00 | 72 | 1006.3 |
| 20260506184445 | 18 | 256 | 3.2 | 4.8 | 0.00 | 0.00 | 0.00 | 72 | 1006.1 |
| 20260506183942 | 19 | 200 | 6.4 | 8.0 | 0.00 | 0.00 | 0.00 | 71 | 1006.5 |
| 20260506183437 | 19 | 197 | 3.2 | 4.8 | 0.00 | 0.00 | 0.00 | 70 | 1006.2 |
| 20260506182935 | 19 | 203 | 4.8 | 8.0 | 0.00 | 0.00 | 0.00 | 70 | 1006.6 |
| 20260506182432 | 19 | 221 | 1.6 | 3.2 | 0.00 | 0.00 | 0.00 | 70 | 1006.5 |
| 20260506181929 | 19 | 210 | 3.2 | 4.8 | 0.00 | 0.00 | 0.00 | 70 | 1006.4 |
| 20260506181427 | 19 | 172 | 4.8 | 4.8 | 0.00 | 0.00 | 0.00 | 70 | 1006.6 |
| 20260506180924 | 20 | 197 | 3.2 | 3.2 | 0.00 | 0.00 | 0.00 | 70 | 1006.7 |
| 20260506180420 | 20 | 168 | 1.6 | 4.8 | 0.00 | 0.00 | 0.00 | 69 | 1006.8 |
| 20260506175917 | 20 | 185 | 4.8 | 8.0 | 0.00 | 0.00 | 0.00 | 68 | 1006.8 |
| 20260506175413 | 20 | 204 | 4.8 | 4.8 | 0.00 | 0.00 | 0.00 | 68 | 1006.8 |
| 20260506174905 | 20 | 216 | 3.2 | 4.8 | 0.00 | 0.00 | 0.00 | 68 | 1007.0 |
| 20260506174403 | 20 | 209 | 6.4 | 12.9 | 0.00 | 0.00 | 0.00 | 68 | 1006.7 |
| 20260506173859 | 20 | 185 | 3.2 | 4.8 | 0.00 | 0.00 | 0.00 | 67 | 1007.0 |
| 20260506173356 | 20 | 182 | 8.0 | 11.3 | 0.00 | 0.00 | 0.00 | 66 | 1006.9 |
| 20260506172853 | 20 | 40 | 4.8 | 8.0 | 0.00 | 0.00 | 0.00 | 67 | 1007.0 |
| 20260506172349 | 20 | 109 | 4.8 | 4.8 | 0.00 | 0.00 | 0.00 | 67 | 1006.9 |
| 20260506171847 | 20 | 170 | 6.4 | 9.7 | 0.00 | 0.00 | 0.00 | 69 | 1007.0 |
| 20260506171344 | 20 | 209 | 3.2 | 4.8 | 0.00 | 0.00 | 0.00 | 69 | 1007.0 |
| 20260506170841 | 20 | 180 | 4.8 | 4.8 | 0.00 | 0.00 | 0.00 | 69 | 1007.1 |
| 20260506170337 | 20 | 167 | 8.0 | 8.0 | 0.00 | 0.00 | 0.00 | 69 | 1007.2 |
| 20260506165832 | 20 | 180 | 6.4 | 8.0 | 0.00 | 0.00 | 0.00 | 69 | 1007.3 |
| 20260506165329 | 20 | 185 | 3.2 | 4.8 | 0.00 | 0.00 | 0.00 | 69 | 1007.3 |
| 20260506164825 | 20 | 196 | 4.8 | 4.8 | 0.00 | 0.00 | 0.00 | 69 | 1007.2 |
| 20260506164321 | 20 | 201 | 6.4 | 9.7 | 0.00 | 0.00 | 0.00 | 68 | 1007.4 |
| 20260506163819 | 20 | 175 | 4.8 | 8.0 | 0.00 | 0.00 | 0.00 | 68 | 1007.4 |
| 20260506163313 | 20 | 133 | 9.7 | 11.3 | 0.00 | 0.00 | 0.00 | 67 | 1007.5 |
| 20260506162809 | 20 | 151 | 6.4 | 8.0 | 0.00 | 0.00 | 0.00 | 67 | 1007.4 |
| 20260506162307 | 20 | 205 | 3.2 | 3.2 | 0.00 | 0.00 | 0.00 | 67 | 1007.6 |
| 20260506161804 | 20 | 197 | 4.8 | 4.8 | 0.00 | 0.00 | 0.00 | 67 | 1007.7 |
| 20260506161302 | 20 | 191 | 4.8 | 8.0 | 0.00 | 0.00 | 0.00 | 67 | 1007.8 |
| 20260506160759 | 20 | 193 | 6.4 | 8.0 | 0.00 | 0.00 | 0.00 | 67 | 1007.9 |
| 20260506160255 | 20 | 200 | 4.8 | 8.0 | 0.00 | 0.00 | 0.00 | 67 | 1007.8 |
| 20260506155755 | 20 | 224 | 3.2 | 3.2 | 0.00 | 0.00 | 0.00 | 66 | 1007.9 |
| 20260506155251 | 20 | 215 | 3.2 | 3.2 | 0.00 | 0.00 | 0.00 | 66 | 1008.2 |
| 20260506153403 | 21 | 194 | 4.8 | 4.8 | 0.00 | 0.00 | 0.00 | 65 | 1008.4 |
| 20260506152900 | 21 | 182 | 4.8 | 4.8 | 0.00 | 0.00 | 0.00 | 65 | 1008.3 |
| 20260506152357 | 21 | 179 | 1.6 | 3.2 | 0.00 | 0.00 | 0.00 | 65 | 1008.4 |
| 20260506151856 | 21 | 178 | 4.8 | 4.8 | 0.00 | 0.00 | 0.00 | 66 | 1008.4 |
| 20260506151352 | 21 | 159 | 4.8 | 4.8 | 0.00 | 0.00 | 0.00 | 66 | 1008.6 |
| 20260506150850 | 21 | 185 | 4.8 | 4.8 | 0.00 | 0.00 | 0.00 | 66 | 1008.8 |
| 20260506150346 | 20 | 183 | 8.0 | 11.3 | 0.00 | 0.00 | 0.00 | 67 | 1009.1 |
| 20260506145843 | 20 | 192 | 4.8 | 4.8 | 0.00 | 0.00 | 0.00 | 68 | 1008.6 |
| 20260506145340 | 20 | 207 | 6.4 | 9.7 | 0.00 | 0.00 | 0.00 | 69 | 1008.6 |
| 20260506144837 | 20 | 205 | 4.8 | 8.0 | 0.00 | 0.00 | 0.00 | 69 | 1008.5 |
| 20260506144333 | 20 | 196 | 3.2 | 8.0 | 0.00 | 0.00 | 0.00 | 70 | 1008.5 |
| 20260506143832 | 19 | 199 | 3.2 | 4.8 | 0.00 | 0.00 | 0.00 | 71 | 1008.5 |
| 20260506143329 | 19 | 159 | 9.7 | 11.3 | 0.00 | 0.00 | 0.00 | 71 | 1008.5 |
| 20260506142827 | 20 | 185 | 4.8 | 8.0 | 0.00 | 0.00 | 0.00 | 70 | 1008.6 |
| 20260506142325 | 20 | 210 | 1.6 | 3.2 | 0.00 | 0.00 | 0.00 | 71 | 1008.4 |
| 20260506141823 | 20 | 196 | 3.2 | 3.2 | 0.00 | 0.00 | 0.00 | 72 | 1008.5 |
| 20260506141321 | 19 | 191 | 4.8 | 4.8 | 0.00 | 0.00 | 0.00 | 73 | 1008.7 |
| 20260506140818 | 18 | 195 | 6.4 | 8.0 | 0.00 | 0.00 | 0.00 | 73 | 1008.4 |
| 20260506140315 | 19 | 202 | 3.2 | 3.2 | 0.00 | 0.00 | 0.00 | 74 | 1008.7 |
| 20260506135812 | 19 | 195 | 3.2 | 3.2 | 0.00 | 0.00 | 0.00 | 73 | 1008.6 |
| 20260506135308 | 18 | 162 | 3.2 | 3.2 | 0.00 | 0.00 | 0.00 | 74 | 1008.9 |
| 20260506134805 | 18 | 177 | 4.8 | 8.0 | 0.00 | 0.00 | 0.00 | 74 | 1008.9 |
| 20260506134301 | 18 | 199 | 3.2 | 3.2 | 0.00 | 0.00 | 0.00 | 74 | 1009.1 |
| 20260506133758 | 18 | 213 | 1.6 | 3.2 | 0.00 | 0.00 | 0.00 | 75 | 1008.9 |
| 20260506133255 | 18 | 239 | 3.2 | 4.8 | 0.00 | 0.00 | 0.00 | 75 | 1009.0 |
| 20260506132752 | 18 | 193 | 3.2 | 3.2 | 0.00 | 0.00 | 0.00 | 75 | 1009.0 |
| 20260506132249 | 18 | 208 | 4.8 | 4.8 | 0.00 | 0.00 | 0.00 | 75 | 1008.8 |
| 20260506131748 | 18 | 191 | 3.2 | 4.8 | 0.00 | 0.00 | 0.00 | 76 | 1008.8 |
| 20260506131243 | 18 | 197 | 4.8 | 8.0 | 0.00 | 0.00 | 0.00 | 75 | 1008.8 |
| 20260506130740 | 18 | 239 | 1.6 | 3.2 | 0.00 | 0.00 | 0.00 | 76 | 1008.8 |
| 20260506130237 | 18 | 167 | 1.6 | 3.2 | 0.00 | 0.00 | 0.00 | 75 | 1009.1 |
| 20260506125735 | 18 | 176 | 3.2 | 4.8 | 0.00 | 0.00 | 0.00 | 76 | 1008.6 |
| 20260506125233 | 17 | 183 | 8.0 | 9.7 | 0.00 | 0.00 | 0.00 | 78 | 1009.1 |
| 20260506124731 | 17 | 207 | 3.2 | 3.2 | 0.00 | 0.00 | 0.00 | 80 | 1009.1 |
| 20260506124228 | 17 | 191 | 3.2 | 3.2 | 0.00 | 0.00 | 0.00 | 80 | 1009.1 |
| 20260506123725 | 17 | 195 | 3.2 | 3.2 | 0.00 | 0.00 | 0.00 | 80 | 1009.3 |
| 20260506123224 | 17 | 199 | 3.2 | 3.2 | 0.00 | 0.00 | 0.00 | 80 | 1009.3 |
| 20260506122720 | 17 | 182 | 4.8 | 4.8 | 0.00 | 0.00 | 0.00 | 79 | 1009.1 |
| 20260506122218 | 17 | 198 | 4.8 | 4.8 | 0.00 | 0.00 | 0.00 | 80 | 1008.8 |
| 20260506121715 | 16 | 262 | 1.6 | 3.2 | 0.00 | 0.00 | 0.00 | 81 | 1009.0 |
| 20260506121212 | 16 | 189 | 3.2 | 4.8 | 0.00 | 0.00 | 0.00 | 81 | 1009.0 |
| 20260506120710 | 16 | 187 | 6.4 | 8.0 | 0.00 | 0.00 | 0.00 | 81 | 1009.3 |
| 20260506120207 | 16 | 196 | 3.2 | 4.8 | 0.00 | 0.00 | 0.00 | 81 | 1009.2 |
| 20260506115705 | 16 | 209 | 4.8 | 8.0 | 0.00 | 0.00 | 0.00 | 81 | 1009.2 |
| 20260506115203 | 16 | 198 | 4.8 | 4.8 | 0.00 | 0.00 | 0.00 | 81 | 1009.3 |
| 20260506114700 | 16 | 201 | 1.6 | 3.2 | 0.00 | 0.00 | 0.00 | 81 | 1009.6 |
| 20260506114158 | 16 | 165 | 1.6 | 3.2 | 0.00 | 0.00 | 0.00 | 82 | 1009.5 |
| 20260506113656 | 16 | 215 | 4.8 | 4.8 | 0.00 | 0.00 | 0.00 | 82 | 1009.4 |
| 20260506113153 | 16 | 206 | 3.2 | 3.2 | 0.00 | 0.00 | 0.00 | 81 | 1009.5 |
| 20260506112649 | 16 | 201 | 3.2 | 3.2 | 0.00 | 0.00 | 0.00 | 82 | 1009.4 |
| 20260506112147 | 16 | 187 | 4.8 | 4.8 | 0.00 | 0.00 | 0.00 | 81 | 1009.3 |
| 20260506111644 | 16 | 192 | 4.8 | 4.8 | 0.00 | 0.00 | 0.00 | 82 | 1009.5 |
| 20260506111142 | 16 | 202 | 3.2 | 3.2 | 0.00 | 0.00 | 0.00 | 83 | 1009.4 |
| 20260506110639 | 16 | 203 | 3.2 | 3.2 | 0.00 | 0.00 | 0.00 | 83 | 1009.3 |
| 20260506110136 | 16 | 189 | 6.4 | 8.0 | 0.00 | 0.00 | 0.00 | 83 | 1009.5 |
| 20260506105633 | 16 | 211 | 8.0 | 9.7 | 0.00 | 0.00 | 0.00 | 83 | 1009.4 |